logo tempoitalia

Diretta Meteo Tromso-Langnes, Norvegiasabato 28 marzo ore 22:20

Mappa
Sereno -5 °C Neve 24 Ore: T.min -5 T.max 2
Ponente Nord/NOvest Km/h 25.9 Punto di rugiada: -7 °C Umidità: 85% Visibilità: 0.55 Km
Il sole sorge alle: 04:58 Il sole tramonta alle: 18:39
28 Marzo 2020 22:20 tempo osservato: Neve Neve -5 85 1014 vento: Nord N/NO 25.9
28 Marzo 2020 21:50 tempo osservato: Neve Neve -4 79 1014 vento: Nord NO 37
28 Marzo 2020 21:20 tempo osservato: Neve Neve -4 68 1013 vento: Nord NO 27.8
28 Marzo 2020 20:50 tempo osservato: Neve Neve -4 73 1013 vento: Nord NO 40.7
28 Marzo 2020 20:20 tempo osservato: Neve Neve -3 68 1013 vento: Nord NO 33.3
28 Marzo 2020 19:20 tempo osservato: Neve Neve -4 73 1013 vento: Nord NO 35.2
28 Marzo 2020 18:50 tempo osservato: Neve Neve -4 79 1013 vento: Nord NO 42.6
28 Marzo 2020 18:20 tempo osservato: Neve Neve -4 79 1013 vento: Nord O/NO 31.5
28 Marzo 2020 17:50 tempo osservato: Pioggia nelle vicinanze Pioggia nelle vicinanze -4 79 1012 vento: Nord O 25.9
28 Marzo 2020 16:50 tempo osservato: Neve Neve -4 85 1012 vento: Nord NO 27.8
28 Marzo 2020 16:20 tempo osservato: Neve Neve -4 79 1012 vento: Nord NO 33.3
28 Marzo 2020 15:50 tempo osservato: Neve Neve -5 85 1012 vento: Nord NO 55.5
28 Marzo 2020 15:20 tempo osservato: Nuvoloso Nuvoloso -3 68 1011 vento: Nord NO 37
28 Marzo 2020 14:50 tempo osservato: Poco Nuvoloso Poco Nuvoloso -3 53 1011 vento: Nord NO 44.4
28 Marzo 2020 14:20 tempo osservato: Nuvoloso Nuvoloso -3 58 1011 vento: Nord O/NO 40.7
28 Marzo 2020 13:50 tempo osservato: Pioggia nelle vicinanze Pioggia nelle vicinanze -3 68 1011 vento: Nord NO 38.8
28 Marzo 2020 13:20 tempo osservato: Nuvoloso Nuvoloso -3 53 1010 vento: Nord NO 35.2
28 Marzo 2020 12:50 tempo osservato: Pioggia nelle vicinanze Pioggia nelle vicinanze -3 73 1010 vento: Nord NO 31.5
28 Marzo 2020 12:20 tempo osservato: Pioggia nelle vicinanze Pioggia nelle vicinanze -3 63 1010 vento: Nord O/NO 37
28 Marzo 2020 11:50 tempo osservato: Neve Neve -3 63 1009 vento: Nord O/NO 27.8
28 Marzo 2020 11:20 tempo osservato: Neve Neve -2 58 1009 vento: Nord O 27.8
28 Marzo 2020 10:50 tempo osservato: Pioggia nelle vicinanze Pioggia nelle vicinanze -4 79 1009 vento: Nord O 29.6
28 Marzo 2020 10:20 tempo osservato: Pioggia nelle vicinanze Pioggia nelle vicinanze -3 63 1009 vento: Nord O 24
28 Marzo 2020 09:50 tempo osservato: Pioggia nelle vicinanze Pioggia nelle vicinanze -4 73 1009 vento: Nord NO 35.2
28 Marzo 2020 09:20 tempo osservato: Pioggia nelle vicinanze Pioggia nelle vicinanze -3 58 1008 vento: Nord O/NO 27.8
28 Marzo 2020 08:50 tempo osservato: Neve Neve -4 79 1008 vento: Nord O/SO 18.5
28 Marzo 2020 08:20 tempo osservato: Neve Neve -4 73 1008 vento: Nord NO 31.5
28 Marzo 2020 07:50 tempo osservato: Pioggia nelle vicinanze Pioggia nelle vicinanze -4 73 1008 vento: Nord O 9.3
28 Marzo 2020 07:20 tempo osservato: Neve Neve -4 79 1007 vento: Nord O/SO 14.8
28 Marzo 2020 06:50 tempo osservato: Pioggia nelle vicinanze Pioggia nelle vicinanze -4 79 1007 vento: Nord O 18.5
28 Marzo 2020 06:20 tempo osservato: Neve Neve -4 85 1006 vento: Nord NO 29.6
28 Marzo 2020 05:50 tempo osservato: Neve Neve -4 92 1006 vento: Nord NO 27.8
28 Marzo 2020 05:20 tempo osservato: Neve Neve -4 92 1005 vento: Nord NO 25.9
28 Marzo 2020 04:50 tempo osservato: Neve Neve -3 92 1004 vento: Nord NO 27.8
28 Marzo 2020 04:20 tempo osservato: Cielo Invisibile Cielo Invisibile -3 92 1002 vento: Nord N/NO 50
28 Marzo 2020 03:50 tempo osservato: Neve Neve -3 100 1001 vento: Nord N/NO 53.7
28 Marzo 2020 03:20 tempo osservato: Neve Neve -2 100 999 vento: Nord N/NO 40.7
28 Marzo 2020 02:50 tempo osservato: Neve Neve -1 100 998 vento: Nord N/NO 11.1
28 Marzo 2020 02:20 tempo osservato: Neve Neve -1 100 998 vento: Nord N 5.5
28 Marzo 2020 01:50 tempo osservato: Neve Neve -1 100 997 vento: Nord N 9.3
28 Marzo 2020 01:20 tempo osservato: Neve Neve -1 100 997 vento: Nord N 3.7
28 Marzo 2020 00:50 tempo osservato: Neve Neve -1 100 998 vento: Nord N 3.7
28 Marzo 2020 00:20 tempo osservato: Neve Neve -1 100 998 vento: Nord NO 9.3
27 Marzo 2020 23:50 tempo osservato: Neve Neve 0 86 999 vento: Nord O 18.5
27 Marzo 2020 23:20 tempo osservato: Coperto Coperto 1 74 999 vento: Nord O/NO 16.7
27 Marzo 2020 22:50 tempo osservato: Neve Neve 2 69 1000 vento: Nord SO 20.3
27 Marzo 2020 22:20 tempo osservato: Nuvoloso Nuvoloso 2 69 1001 vento: Nord S/SO 24
27 Marzo 2020 21:50 tempo osservato: Molto Nuvoloso Molto Nuvoloso 2 69 1001 vento: Nord S 20.3